GEFSSGP_con_probscp_000.txt.gz
Probability
0 0 0 0 0 0 0 0 0 0 0 0 0 0 0 0 0 0 0 0 0 0 0 0 1 0 0 0 0 0 0 0 0 0 0 0 0 0 0 0 0 0 0 0 0 0 0 0 0
0 0 0 0 0 0 0 0 0 0 0 0 0 0 0 0 0 0 0 0 0 0 1 2 3 2 1 1 1 0 0 0 0 0 0 0 0 0 0 0 0 0 0 0 0 0 0 0 0
0 0 0 0 0 0 0 0 0 0 0 0 0 0 0 0 0 0 0 0 0 1 3 8 12 10 5 4 4 2 1 0 0 0 0 0 0 0 0 0 0 0 0 0 0 0 0 0 0
0 0 0 0 0 0 0 0 0 0 0 0 0 0 0 0 0 0 0 0 0 2 7 19 30 28 20 16 12 8 4 1 0 0 0 0 0 0 0 0 0 0 0 0 0 0 0 0 0
0 0 0 0 0 0 0 0 0 0 0 0 0 0 0 0 0 0 0 0 1 3 10 25 43 49 45 38 25 15 8 3 0 0 0 0 0 0 0 0 0 0 0 0 0 0 0 0 0
0 0 0 0 0 0 0 0 0 0 0 0 0 0 0 0 0 0 0 0 1 4 11 23 36 49 57 51 34 18 11 7 2 0 0 0 0 0 0 0 0 0 0 0 0 0 0 0 0
0 0 0 0 0 0 0 0 0 0 0 0 0 0 0 0 0 0 2 4 4 6 12 18 22 29 38 39 28 15 9 7 4 2 1 0 0 0 0 0 0 0 0 0 0 0 0 2 3
0 0 0 0 0 0 0 0 0 0 0 0 0 0 0 0 1 3 9 13 9 8 14 15 12 11 14 17 15 9 5 5 4 3 2 1 0 0 0 0 0 0 0 0 0 0 2 6 9
0 0 0 0 0 0 0 0 0 1 0 0 0 0 0 1 6 16 28 28 15 7 10 10 6 3 4 6 8 7 5 5 6 6 4 2 1 0 0 0 0 0 0 0 1 2 4 9 12
0 0 0 0 0 0 0 0 0 1 0 0 0 0 2 9 22 39 52 44 21 6 5 5 3 0 1 3 6 7 7 8 12 13 10 5 3 3 3 3 4 3 2 3 6 7 6 6 7
0 0 0 0 0 0 0 0 0 1 0 0 0 0 4 17 37 58 71 62 35 13 4 2 1 0 0 2 5 9 11 14 21 27 23 13 9 10 11 13 20 25 25 27 27 20 10 6 6
0 0 0 0 0 0 0 0 0 3 5 4 1 1 4 13 32 60 78 80 63 38 19 12 9 5 1 1 6 16 24 31 43 50 45 35 30 30 29 31 43 59 64 65 60 42 22 13 11
0 0 0 0 0 0 0 0 2 13 21 17 10 10 11 14 24 48 77 90 88 70 47 36 32 20 6 3 13 30 45 56 65 69 67 64 61 61 60 57 62 76 85 85 80 64 43 32 30
0 0 0 0 0 0 0 0 8 33 51 45 40 42 41 43 46 59 80 93 96 89 74 65 62 46 24 17 30 54 70 73 72 73 77 81 82 83 85 81 77 77 78 78 77 71 59 53 54
0 0 0 0 0 0 0 1 18 55 80 81 80 81 81 82 83 87 93 97 98 95 91 88 85 76 60 49 58 77 85 79 71 68 72 80 87 92 94 92 86 78 71 70 74 71 63 57 56
0 0 0 0 0 0 0 6 32 71 94 99 99 99 100 100 100 100 100 100 99 99 99 98 97 94 87 81 81 86 83 71 62 60 61 69 82 91 94 92 88 80 75 78 83 78 65 49 42
0 0 0 0 0 0 0 10 40 74 94 99 100 100 100 98 94 93 96 99 100 100 100 100 98 96 93 89 84 79 69 52 42 42 47 57 74 87 91 90 89 85 84 90 93 86 69 46 33
0 0 0 0 0 0 0 7 28 60 86 98 99 100 98 90 74 67 77 92 99 99 99 97 95 92 90 83 72 61 47 33 27 29 36 50 68 80 86 87 89 90 92 93 92 86 71 48 31
0 0 0 0 0 0 0 2 9 35 74 96 99 100 96 78 48 33 47 73 87 90 92 93 91 86 83 75 59 41 30 26 25 24 31 42 54 68 74 78 85 93 95 94 90 84 73 48 26
0 0 0 0 0 0 0 0 6 32 71 95 99 97 87 61 28 19 33 50 60 64 68 73 75 73 72 67 50 32 26 27 25 25 28 31 38 54 64 69 79 90 94 94 92 87 76 49 23
0 0 0 0 0 0 0 0 10 42 75 92 92 83 63 34 14 16 26 28 29 31 31 36 44 55 66 66 51 33 25 23 20 19 20 19 23 38 55 66 78 85 86 84 85 87 83 61 38
0 0 0 0 0 0 0 0 8 29 54 67 66 52 29 10 4 7 11 10 9 7 7 9 17 33 53 60 47 28 16 12 11 9 7 7 9 17 34 53 67 75 74 65 63 75 83 73 61
0 0 0 0 0 0 0 0 1 8 19 26 27 19 7 1 0 0 0 1 1 0 1 2 5 13 31 41 33 17 7 3 3 2 0 0 0 2 11 26 40 51 54 40 32 49 65 64 57
0 0 0 0 0 0 0 0 0 1 2 3 3 2 0 0 0 0 0 0 0 0 0 0 1 9 23 32 24 11 3 0 0 0 0 0 0 0 2 7 14 23 26 17 12 22 33 33 28
0 0 0 0 0 0 0 0 0 0 0 0 0 0 0 0 0 0 0 0 0 0 0 2 6 15 27 30 21 10 3 0 0 0 0 0 0 0 0 1 3 5 6 4 4 6 9 7 6
0 0 0 0 0 0 0 0 0 0 0 0 0 0 0 0 0 0 0 0 0 0 0 3 8 12 18 20 12 5 1 0 0 0 0 0 0 0 0 0 0 0 0 0 1 1 1 0 0
0 0 0 0 0 0 0 0 0 0 0 0 0 0 0 0 0 0 0 0 0 0 0 2 4 4 5 7 4 1 0 0 0 0 0 0 0 0 0 0 0 0 0 0 0 0 0 0 0
0 0 0 0 0 0 0 0 0 0 0 0 0 0 0 0 0 0 0 0 0 0 0 0 0 0 1 2 1 0 0 0 0 0 0 0 0 0 0 0 0 0 0 0 0 0 0 0 0
0 0 0 0 0 0 0 0 0 0 0 0 0 0 0 0 0 0 0 0 0 0 0 0 0 0 1 0 0 0 0 0 0 0 0 0 0 0 0 0 0 0 0 0 0 0 0 0 0
0 0 0 0 0 0 0 0 0 0 0 0 0 0 0 0 0 0 0 0 0 0 0 0 0 0 1 0 0 0 0 0 0 0 0 0 0 0 0 0 0 0 0 0 0 0 0 0 0

GEFSSGP_con_probscp_006.txt.gz
Probability
0 0 0 0 0 0 0 0 0 0 0 0 0 0 0 0 0 0 0 0 0 0 0 0 0 0 0 0 0 0 0 0 0 0 0 0 0 0 0 0 0 0 0 0 0 0 0 0 0
0 0 0 0 0 0 0 0 0 0 0 0 0 0 0 0 0 0 0 0 0 0 0 0 0 0 0 0 0 0 0 0 0 0 0 0 0 0 0 0 0 0 0 0 0 0 0 0 0
0 0 0 0 0 0 0 0 0 0 0 0 0 0 0 0 0 0 0 0 0 0 0 0 0 0 0 0 0 0 0 0 0 0 0 0 0 0 0 0 0 0 0 0 0 0 0 0 0
0 0 0 0 0 0 0 0 0 0 0 0 0 0 0 0 0 0 0 0 0 0 0 0 0 0 0 0 0 0 0 0 0 0 0 0 0 0 0 0 0 0 0 0 0 0 0 0 0
0 0 0 0 0 0 0 0 0 0 0 0 0 0 0 0 0 0 0 0 0 0 0 0 0 0 0 0 0 0 0 0 0 0 0 0 0 0 0 0 0 0 0 0 0 0 0 0 0
0 0 0 0 0 0 0 0 0 0 0 0 0 0 0 0 0 0 0 0 0 1 0 0 0 0 0 0 0 0 0 0 0 0 0 0 0 0 0 0 0 0 0 0 0 0 0 0 0
0 0 0 0 0 0 0 0 0 0 0 0 0 0 0 0 0 0 0 0 0 0 0 0 0 0 0 0 0 0 0 0 0 0 0 0 0 0 0 0 0 0 0 0 0 0 0 0 0
0 0 0 0 0 0 0 0 0 0 0 0 0 0 0 0 0 0 0 0 0 0 0 0 0 0 0 0 0 0 0 0 0 0 0 0 0 0 0 0 0 0 0 0 0 0 0 0 0
0 0 0 0 0 0 0 0 0 0 0 0 0 0 0 0 0 0 0 1 1 1 2 6 10 13 15 16 15 13 12 9 7 5 3 1 1 0 0 0 0 0 0 0 0 0 0 0 0
0 0 0 0 0 0 0 0 0 0 0 0 0 0 0 0 1 1 1 2 1 1 6 16 29 39 47 51 49 46 44 39 34 27 19 13 8 3 1 1 1 1 1 1 0 0 0 1 2
0 0 0 0 0 0 0 0 0 0 0 0 4 10 11 7 5 6 7 4 1 1 5 17 36 55 70 77 75 73 74 72 67 61 53 43 29 14 7 7 10 13 13 7 2 1 0 2 4
0 0 0 0 0 0 0 0 0 0 0 3 18 39 41 30 21 18 17 10 3 1 2 10 27 49 64 70 68 69 76 81 82 82 84 78 62 42 28 26 33 38 34 21 12 8 5 5 7
0 0 0 0 0 0 0 0 0 0 1 11 39 67 73 62 48 39 31 20 10 4 1 4 15 32 45 46 44 47 59 69 73 82 94 96 89 77 65 62 66 66 56 43 31 23 19 21 24
0 0 0 0 0 0 0 1 2 4 11 32 60 78 80 71 61 55 49 40 29 17 8 5 8 18 23 22 21 26 36 45 52 65 82 93 97 95 91 89 90 87 79 68 56 46 41 45 51
0 0 0 0 0 0 0 2 8 21 40 65 80 82 77 67 57 54 60 66 62 50 37 27 24 24 19 12 9 12 19 24 31 47 63 73 81 86 86 86 88 92 91 86 77 68 61 60 63
0 0 0 0 0 0 0 7 26 51 75 90 94 91 84 72 59 54 66 83 89 85 75 63 56 49 35 20 11 14 25 29 32 42 49 47 48 54 60 63 68 79 91 93 88 81 74 69 67
0 0 0 0 0 0 3 21 54 82 94 99 99 95 85 70 60 60 71 84 91 89 84 75 68 59 44 26 15 18 30 35 32 34 33 26 21 24 31 37 43 59 80 90 90 88 85 82 79
0 0 0 0 0 2 15 46 79 94 97 98 98 92 76 59 49 48 55 62 62 60 58 56 53 46 32 17 8 8 14 17 15 14 13 10 8 9 13 15 20 34 54 72 83 87 87 85 83
0 0 0 0 0 3 20 51 71 76 81 89 95 90 76 59 41 28 23 24 25 25 28 33 34 27 16 6 1 0 0 1 1 1 2 1 2 3 3 3 5 12 25 44 65 76 78 74 68
0 0 0 0 0 2 11 24 35 42 56 78 92 89 80 62 36 14 5 3 4 7 10 15 16 12 6 2 0 0 0 0 0 0 0 0 0 0 0 0 0 2 8 21 39 56 65 60 50
0 0 0 0 0 0 1 3 9 23 45 71 88 87 74 51 23 5 0 0 0 1 3 5 5 5 4 4 3 2 1 0 0 0 0 0 0 0 0 0 0 0 2 7 16 30 47 51 42
0 0 0 0 0 0 0 0 5 19 40 60 75 75 55 27 8 1 0 0 0 0 0 1 3 4 5 7 8 6 2 0 0 0 0 0 0 0 0 0 0 0 0 1 4 15 35 46 44
0 0 0 0 0 0 0 0 3 12 22 32 45 46 28 9 1 0 0 0 0 0 0 0 1 2 4 7 7 6 3 1 0 0 0 0 0 0 0 0 0 0 0 0 2 10 26 39 42
0 0 0 0 0 0 0 0 1 3 5 8 13 14 8 2 0 0 0 0 0 0 0 0 0 0 1 2 2 2 2 1 0 0 0 0 0 0 0 0 0 0 0 0 1 4 13 23 26
0 0 0 0 0 0 0 0 0 0 0 0 0 1 0 0 0 0 0 0 0 0 0 0 0 0 0 0 0 0 1 1 0 0 0 0 0 0 0 0 0 0 0 0 0 1 3 7 7
0 0 0 0 0 0 0 0 0 0 0 0 0 0 0 0 0 0 0 0 0 0 0 0 0 0 0 0 0 0 0 0 0 0 0 0 0 0 0 0 0 0 0 0 0 0 0 0 0
0 0 0 0 0 0 0 0 0 0 0 0 0 0 0 0 0 0 0 0 0 0 0 0 0 0 0 0 0 0 0 0 0 0 0 0 0 0 0 0 0 0 0 0 0 0 0 0 0
0 0 0 0 0 0 0 0 0 0 0 0 0 0 0 0 0 0 0 0 0 0 0 0 0 0 0 0 0 0 0 0 0 0 0 0 0 0 0 0 0 0 0 0 0 0 0 0 0
0 0 0 0 0 0 0 0 0 0 0 0 0 0 0 0 0 0 0 0 0 0 0 0 0 0 0 0 0 0 0 0 0 0 0 0 0 0 0 0 0 0 0 0 0 0 0 0 0
0 0 0 0 0 0 0 0 0 0 0 0 0 0 0 0 0 0 0 0 0 0 0 0 0 0 0 0 0 0 0 0 0 0 0 0 0 0 0 0 0 0 0 0 0 0 0 0 0

GEFSSGP_con_probscp_012.txt.gz
Probability
0 0 0 0 0 0 0 0 0 0 0 0 0 0 0 0 0 0 0 0 0 0 0 0 0 0 0 0 0 0 0 0 0 0 0 0 0 0 0 0 0 0 0 0 0 0 0 0 0
0 0 0 0 0 0 0 0 0 0 0 0 0 0 0 0 0 0 0 0 0 0 0 0 0 0 0 0 0 0 0 0 0 0 0 0 0 0 0 0 0 0 0 0 0 0 0 0 0
0 0 0 0 0 0 0 0 0 0 0 0 0 0 0 0 0 0 0 0 0 0 0 0 0 0 0 0 0 0 0 0 0 0 0 0 0 0 0 0 0 0 0 0 0 0 0 0 0
0 0 0 0 0 0 0 0 0 0 0 0 0 0 0 0 0 0 0 0 0 0 0 0 0 0 0 0 0 0 0 0 0 0 0 0 0 0 0 0 0 0 0 0 0 0 0 0 0
0 0 0 0 0 0 0 0 0 0 0 0 0 0 0 0 0 0 0 0 0 0 0 0 0 0 0 0 0 0 0 0 0 0 0 0 0 0 0 0 0 0 0 0 0 0 0 0 0
0 0 0 0 0 0 0 0 0 0 0 0 0 0 0 0 0 0 0 0 0 0 0 0 0 0 0 0 0 0 0 0 0 0 0 0 0 0 0 0 0 0 0 0 0 0 0 0 0
0 0 0 0 0 0 0 0 0 0 0 0 0 0 0 0 0 0 0 0 0 0 0 0 0 0 0 0 0 0 0 0 0 0 0 0 0 0 0 0 0 0 0 0 0 0 0 0 0
0 0 0 0 0 0 0 0 0 0 0 0 0 0 0 0 0 0 0 0 0 0 0 0 0 0 0 1 2 3 2 1 0 0 0 0 0 0 0 0 0 0 0 0 0 0 0 0 0
0 0 0 0 0 0 0 0 0 0 0 0 0 0 0 1 1 0 0 0 0 0 0 0 0 0 0 2 8 10 9 6 3 0 2 2 1 0 0 3 5 3 0 0 0 0 0 0 0
0 0 0 0 0 0 0 0 0 0 0 0 0 0 1 2 2 1 0 0 0 0 0 0 0 0 0 4 16 26 27 25 16 8 10 12 8 5 8 14 17 9 1 1 2 3 2 0 0
0 0 0 0 0 0 0 0 0 0 0 0 3 6 8 7 4 2 1 0 1 1 1 0 0 0 0 5 22 43 54 55 46 35 36 40 37 34 39 44 40 26 15 12 15 14 7 2 1
0 0 0 0 0 0 0 0 0 0 0 0 9 22 30 27 19 8 3 2 4 4 3 2 0 0 1 5 19 39 54 63 69 71 73 76 77 76 78 79 71 58 48 40 37 32 21 13 12
0 0 0 0 0 0 0 0 0 0 0 4 21 45 60 60 49 31 18 13 12 10 8 6 6 8 12 16 19 21 28 40 56 72 82 88 94 94 94 93 89 82 75 68 61 51 41 36 34
0 0 0 0 0 0 0 0 0 0 3 14 41 69 83 85 78 62 43 28 20 16 15 17 23 31 38 41 36 27 24 26 37 51 61 70 80 82 80 79 77 74 75 77 72 62 57 57 57
0 0 0 0 0 0 0 0 0 1 7 30 63 86 94 95 92 79 56 33 23 22 27 36 49 60 67 66 61 55 49 44 49 55 51 49 56 63 63 58 53 55 64 74 73 69 70 72 72
0 0 0 0 0 0 0 0 0 1 13 43 76 93 97 97 95 83 57 34 26 30 41 56 71 82 85 80 74 69 64 63 68 68 55 39 36 43 50 51 48 50 58 68 73 78 83 86 85
0 0 0 0 0 0 0 1 2 4 20 53 82 94 96 96 96 86 65 49 43 43 53 70 85 91 89 80 71 60 54 54 54 52 43 30 22 24 32 39 40 40 44 55 65 76 84 88 91
0 0 0 0 0 0 0 2 7 14 33 64 87 93 94 95 96 90 80 73 68 64 68 80 88 86 74 61 50 39 30 25 23 22 19 13 8 8 11 15 16 18 22 30 42 52 58 64 70
0 0 0 0 0 0 1 3 10 19 36 62 82 87 88 92 96 94 89 84 81 78 80 82 77 62 44 31 24 17 9 5 4 4 4 2 1 1 1 1 2 3 6 11 18 22 23 26 32
0 0 0 0 0 0 0 2 6 11 20 39 61 73 80 87 93 93 86 75 69 70 72 67 53 32 15 8 6 4 2 0 0 0 0 0 0 0 0 0 1 1 1 3 4 5 4 4 6
0 0 0 0 0 0 0 0 1 2 5 16 37 60 76 85 89 86 74 57 47 47 47 41 30 18 10 6 3 1 0 0 0 0 0 0 0 0 0 0 0 0 0 0 0 1 1 1 1
0 0 0 0 0 0 0 0 0 0 1 5 21 50 75 84 83 75 61 45 36 33 29 25 23 25 28 25 17 8 2 0 0 0 0 1 0 0 0 0 0 0 0 0 0 0 2 3 4
0 0 0 0 0 0 0 0 0 0 0 3 14 39 64 74 71 64 55 45 39 32 25 21 28 43 52 50 39 23 9 2 1 0 1 2 1 0 0 0 0 0 0 0 0 0 2 5 7
0 0 0 0 0 0 0 0 0 0 0 3 13 31 49 57 57 54 51 45 39 32 23 19 32 53 66 64 56 42 24 13 6 1 0 1 0 0 0 0 0 0 0 0 0 0 1 3 5
0 0 0 0 0 0 0 0 0 0 0 2 10 25 38 41 38 35 33 31 28 25 25 28 40 59 70 72 71 64 50 33 18 7 2 0 0 0 0 0 0 0 0 0 0 0 0 1 1
0 0 0 0 0 0 0 0 0 0 0 1 5 14 21 20 15 11 11 11 12 16 25 39 53 67 78 82 86 86 76 57 36 20 8 2 0 0 0 0 0 0 0 0 0 0 0 0 0
0 0 0 0 0 0 0 0 0 0 0 0 2 4 5 4 1 0 0 1 3 8 16 28 45 60 71 81 89 93 90 79 61 41 22 9 3 1 0 0 0 0 0 0 0 0 0 1 1
0 0 0 0 0 0 0 0 0 0 0 0 0 0 0 0 0 0 0 0 0 2 4 9 19 30 39 50 65 77 85 89 82 65 45 27 14 5 1 0 0 0 0 0 0 0 0 1 2
0 0 0 0 0 0 0 0 0 0 0 0 0 0 0 0 0 0 0 0 0 0 0 1 3 6 9 15 26 41 55 68 77 78 67 51 32 15 4 1 0 0 0 0 0 0 0 1 1
0 0 0 0 0 0 0 0 0 0 0 0 0 0 0 0 0 0 0 0 0 0 0 0 0 0 0 1 5 14 25 40 59 74 76 65 45 23 7 1 0 0 0 0 0 0 0 0 0

GEFSSGP_con_probscp_018.txt.gz
Probability
0 0 0 0 0 0 0 0 0 0 0 0 0 0 0 0 0 0 0 0 0 0 0 0 0 0 0 0 0 0 0 0 0 0 0 0 0 0 0 0 0 0 0 0 0 0 0 0 0
0 0 0 0 0 0 0 0 0 0 0 0 0 0 0 0 0 0 0 0 0 0 0 0 0 0 0 0 0 0 0 0 0 0 0 0 0 0 0 0 0 0 0 0 0 0 0 0 0
0 0 0 0 0 0 0 0 0 0 0 0 0 0 0 0 0 0 0 0 0 0 0 0 0 0 0 0 0 0 0 0 0 0 0 0 0 0 0 0 0 0 0 0 0 0 0 0 0
0 0 0 0 0 0 0 0 0 0 0 0 0 0 0 0 0 0 0 0 0 0 0 0 0 0 0 0 0 0 0 0 0 0 0 0 0 0 0 0 0 0 0 0 0 0 0 0 0
0 0 0 0 0 0 0 0 0 0 0 0 0 0 0 0 0 0 0 0 0 0 0 0 0 0 0 0 0 0 0 0 0 0 0 0 0 0 0 0 0 0 0 0 0 0 0 0 0
0 0 0 0 0 0 0 0 0 0 0 0 0 0 0 0 0 0 0 0 0 0 0 0 0 0 0 0 0 0 0 0 0 0 0 0 0 0 0 0 0 0 0 0 0 0 0 0 0
0 0 0 0 0 0 0 0 0 0 0 0 0 0 0 0 0 0 0 0 1 2 1 0 0 0 0 0 0 0 0 0 0 0 0 0 0 0 0 0 0 0 0 0 0 0 0 1 1
0 0 0 0 0 0 0 0 0 0 0 0 0 0 0 0 0 0 0 0 2 8 9 4 1 1 1 0 1 3 4 3 2 1 0 0 0 1 6 9 8 5 5 7 9 8 6 7 8
0 0 0 0 0 0 0 0 0 0 1 6 12 10 3 0 0 0 0 0 3 12 17 13 14 15 7 6 16 20 17 16 11 8 13 13 6 3 15 30 33 30 30 34 38 35 30 26 23
0 0 0 0 0 0 0 0 0 0 6 25 42 32 12 5 4 4 3 1 1 8 14 21 38 42 22 24 49 47 36 41 37 28 39 45 31 16 26 53 67 64 66 71 74 69 64 54 44
0 0 0 0 0 0 0 0 0 0 11 40 57 43 23 18 18 19 15 11 10 11 9 19 49 63 46 52 77 73 63 72 72 62 68 77 69 51 51 73 87 87 89 92 91 88 83 71 58
0 0 0 0 0 0 0 0 0 0 10 31 44 38 34 34 33 35 35 35 43 37 20 23 54 77 73 74 88 90 88 93 94 89 89 93 93 86 83 89 95 95 96 96 93 90 87 76 64
0 0 0 0 0 0 0 0 0 0 5 17 27 35 44 46 41 44 54 68 78 72 52 53 75 91 92 88 91 96 98 99 99 99 99 98 99 98 97 96 96 96 94 92 88 85 83 77 71
0 0 0 0 0 0 0 0 0 0 3 10 21 33 46 50 47 54 75 90 96 93 86 86 94 99 99 96 95 96 98 99 99 99 99 99 100 99 98 96 93 91 88 82 79 78 76 72 69
0 0 0 0 0 0 0 0 0 0 1 6 15 26 41 51 57 71 89 97 99 100 99 99 100 100 100 100 99 98 98 99 100 99 98 98 98 99 99 97 92 87 82 78 74 74 72 68 65
0 0 0 0 0 0 0 0 0 0 0 2 9 22 44 62 73 85 96 99 100 100 100 100 100 100 100 100 99 98 98 98 97 96 95 92 88 87 89 88 82 75 72 70 67 69 72 70 68
0 0 0 0 0 0 0 0 0 0 0 1 6 24 55 79 89 94 99 100 100 100 100 100 100 100 99 98 95 93 93 89 83 82 86 79 65 61 63 61 56 50 48 46 46 53 59 58 56
0 0 0 0 0 0 0 0 0 0 0 1 9 32 66 89 97 98 99 99 98 99 99 99 99 98 96 95 91 87 84 73 58 62 70 56 37 32 32 27 25 22 20 19 22 27 30 31 31
0 0 0 0 0 0 0 0 0 0 1 5 16 40 70 89 95 95 94 92 92 94 96 97 98 96 93 92 90 85 76 55 37 46 55 39 20 14 11 7 6 6 5 5 7 7 8 9 10
0 0 0 0 0 0 0 0 0 2 8 18 31 48 66 76 80 80 77 75 76 81 85 88 92 91 88 87 82 77 67 42 28 42 57 47 26 14 6 3 2 1 0 1 1 1 1 2 2
0 0 0 0 0 0 0 0 2 8 23 43 52 53 53 51 48 47 44 44 48 56 64 74 85 86 85 82 70 65 61 40 30 49 70 68 49 28 15 8 4 1 1 0 0 0 1 2 2
0 0 0 0 0 0 0 1 5 17 38 58 61 49 37 27 20 15 14 17 22 31 47 67 80 85 87 84 74 71 69 54 50 66 82 81 62 41 26 16 8 4 2 1 0 0 1 1 1
0 0 0 0 0 0 0 1 7 25 47 58 52 37 23 14 10 7 6 9 12 22 42 63 76 83 88 91 88 86 82 75 75 83 88 83 69 52 40 30 19 9 3 1 0 0 0 1 2
0 0 0 0 0 0 0 1 11 33 52 49 35 22 12 8 8 8 9 10 12 19 33 49 61 68 77 85 89 91 91 89 90 91 92 89 79 68 59 48 33 17 6 2 2 1 1 2 3
0 0 0 0 0 0 0 4 16 36 41 30 17 9 5 4 4 5 7 9 10 13 18 26 36 43 50 57 67 77 85 89 92 94 95 95 91 85 78 64 46 27 10 3 2 1 1 2 4
0 0 0 0 0 0 5 15 24 24 19 10 4 2 1 1 1 1 3 5 6 6 6 9 15 20 21 24 32 45 57 68 80 89 95 97 96 94 88 76 60 41 21 8 2 1 0 1 2
0 0 0 0 0 0 8 25 28 17 6 1 0 0 0 0 0 0 1 1 2 2 2 3 5 7 6 6 9 16 25 35 48 66 80 88 94 96 94 87 78 63 43 23 10 3 0 0 1
0 0 0 0 0 0 5 20 31 22 7 1 0 0 0 0 0 0 0 0 0 0 0 0 1 2 2 2 2 4 7 12 19 32 47 60 73 83 89 91 90 82 67 48 28 9 1 0 0
0 0 0 0 0 0 0 10 22 18 6 1 0 0 0 0 0 0 0 0 0 0 0 0 0 0 1 1 1 0 1 2 4 8 15 24 37 51 64 77 86 87 80 67 47 20 4 1 0
0 0 0 0 0 0 0 5 11 9 3 0 0 0 0 0 0 0 0 0 0 0 0 0 0 0 0 0 0 0 0 0 1 2 3 6 14 24 38 56 75 83 81 74 57 29 8 2 1

GEFSSGP_con_probscp_024.txt.gz
Probability
0 0 0 0 0 0 0 0 0 0 0 0 0 0 0 0 0 0 0 0 0 0 0 0 0 0 0 0 0 0 0 0 0 0 0 0 0 0 0 0 0 0 0 0 0 0 0 0 0
0 0 0 0 0 0 0 0 0 0 0 0 0 0 0 0 0 0 0 0 0 0 0 0 0 0 0 0 0 0 0 0 0 0 0 0 0 0 0 0 0 0 0 0 0 0 0 0 0
0 0 0 0 0 0 0 0 0 0 0 0 0 0 0 0 0 0 0 0 0 0 0 1 2 1 0 0 0 0 0 0 0 0 0 0 0 0 0 0 0 0 0 0 0 0 0 0 0
0 0 0 0 0 0 0 0 0 0 0 0 0 0 0 0 0 0 0 0 0 0 0 2 4 4 1 0 0 0 0 0 0 0 0 0 0 0 0 0 0 0 0 0 0 0 0 0 0
0 0 0 0 0 0 0 0 0 0 0 0 0 0 0 0 0 0 0 0 0 0 0 2 4 3 1 0 0 0 0 0 0 0 0 0 0 0 0 0 0 0 0 0 0 0 0 0 0
0 0 0 0 0 0 0 0 0 0 0 0 0 0 0 0 0 0 0 0 0 0 0 1 4 4 5 4 3 1 0 0 0 0 0 0 0 0 0 0 0 0 0 0 0 0 0 0 0
0 0 0 0 0 0 0 0 0 0 0 0 0 0 0 0 0 0 0 0 0 0 0 2 5 9 11 11 7 4 1 0 0 0 0 0 0 0 0 0 0 0 0 0 0 0 0 0 0
0 0 0 0 0 0 0 0 0 0 1 0 0 0 0 0 0 0 1 1 0 0 0 3 8 13 14 12 8 5 3 1 0 0 0 0 0 0 0 0 0 0 0 0 1 1 0 0 0
0 0 0 0 0 0 0 0 0 2 4 4 2 1 0 1 2 4 8 11 8 2 0 2 7 12 12 9 5 3 2 1 0 0 0 0 0 0 0 0 0 0 0 0 1 2 2 2 2
0 0 0 0 0 0 0 0 0 2 7 11 9 4 1 3 6 11 24 37 32 16 4 1 4 8 9 6 3 2 1 1 0 0 0 0 0 0 0 0 0 0 0 1 2 5 10 12 11
0 0 0 0 0 0 0 0 0 2 8 16 16 10 6 7 12 19 38 59 62 42 19 6 3 5 6 4 3 2 1 0 0 0 0 0 0 0 0 0 0 0 1 4 7 14 25 29 26
0 0 0 0 0 0 0 0 0 2 12 24 25 18 14 13 17 25 42 65 76 66 41 20 9 5 4 3 3 3 2 1 1 1 1 2 2 1 1 1 0 0 2 6 12 22 31 33 31
0 0 0 0 0 0 0 0 0 6 25 41 38 26 19 18 23 31 45 60 71 68 54 34 19 11 10 9 10 9 7 6 7 7 9 11 10 6 3 1 0 0 1 4 9 16 20 20 18
0 0 0 0 0 0 0 0 0 11 38 56 47 28 20 23 31 39 47 54 58 55 48 38 30 28 30 32 33 31 28 25 24 23 25 30 27 16 6 2 0 0 0 1 2 5 7 7 6
0 0 0 0 0 0 0 0 0 11 37 52 43 29 25 29 34 38 40 44 44 40 36 34 35 42 53 60 62 62 59 53 46 39 39 43 38 22 8 2 0 0 0 0 0 0 1 2 1
0 0 0 0 0 0 0 0 0 7 24 37 39 39 38 35 31 27 26 29 30 27 24 26 31 43 60 72 79 79 74 66 55 43 39 38 31 18 7 2 0 0 0 0 0 0 0 0 0
0 0 0 0 0 0 0 1 4 11 24 38 49 55 50 36 23 15 13 14 15 13 13 15 21 33 50 64 72 71 65 55 45 35 29 23 17 9 3 1 0 0 0 0 0 0 0 0 0
0 0 0 0 0 0 0 3 9 19 33 48 57 58 48 31 15 7 4 4 4 4 5 8 13 22 34 44 48 46 41 33 26 20 15 11 6 3 1 0 0 0 0 0 0 0 0 0 0
0 0 0 0 0 0 0 3 8 16 29 41 44 42 33 20 8 2 0 0 0 1 2 6 10 13 18 22 23 21 17 13 10 7 5 3 2 1 1 0 0 0 0 0 0 0 0 0 0
0 0 0 0 0 0 0 2 4 8 15 22 23 20 15 9 4 1 0 0 0 0 2 4 6 6 6 9 9 6 4 3 3 2 2 1 0 0 0 0 0 0 0 0 0 0 0 0 0
0 0 0 0 0 0 0 1 2 4 7 10 10 8 5 3 1 0 0 0 0 0 1 1 2 2 2 3 2 1 1 1 2 2 1 0 0 0 0 0 0 0 0 0 0 0 0 0 0
0 0 0 0 0 0 0 0 0 2 3 4 4 3 1 1 0 0 0 0 0 0 0 0 0 0 0 0 0 0 1 1 1 1 1 1 0 0 0 0 0 0 0 0 0 0 0 0 0
0 0 0 0 0 0 0 0 1 3 2 1 1 0 0 0 0 0 0 0 0 0 0 0 0 0 0 0 0 0 1 1 1 1 2 1 0 0 0 0 0 0 0 0 0 0 0 0 0
0 0 0 0 0 0 0 0 1 2 1 0 0 0 0 0 0 0 0 0 0 0 0 0 0 0 0 0 0 0 0 0 1 3 3 2 1 0 0 1 1 1 0 0 0 0 0 0 0
0 0 0 0 0 0 0 0 0 0 0 0 0 0 0 0 0 0 0 0 0 0 0 0 0 0 0 0 0 0 0 0 0 2 3 3 2 0 0 1 2 2 1 0 0 0 0 0 0
0 0 0 0 0 0 0 0 0 0 0 0 0 0 0 0 0 0 0 0 0 0 0 0 0 0 0 0 0 0 0 0 0 0 1 1 1 0 0 1 1 1 1 1 1 0 0 0 0
0 0 0 0 0 0 0 0 0 0 0 0 0 0 0 0 0 0 0 0 0 0 0 0 0 0 0 0 0 0 0 0 0 0 0 0 0 0 0 0 0 0 1 1 1 0 0 0 0
0 0 0 0 0 0 0 0 0 0 0 0 0 0 0 0 0 0 0 0 0 0 0 0 0 0 0 0 0 0 0 0 0 0 0 0 0 0 0 0 0 0 0 0 0 0 0 0 0
0 0 0 0 0 0 0 0 0 0 0 0 0 0 0 0 0 0 0 0 0 0 0 0 0 0 0 0 0 0 0 0 0 0 0 0 0 0 0 0 0 0 0 0 0 0 0 0 0
0 0 0 0 0 0 0 0 0 0 0 0 0 0 0 0 0 0 0 0 0 0 0 0 0 0 0 0 0 0 0 0 0 0 0 0 0 0 0 0 0 0 0 0 0 0 0 0 0